Time,TemperatureF,DewpointF,PressureIn,WindDirection,WindDirectionDegrees,WindSpeedMPH,WindSpeedGustMPH,Humidity,HourlyPrecipIn,Conditions,Clouds,dailyrainin,SoftwareType,DateUTC
2013-07-13 00:01:00,67.0,38.0,-100.00,WNW,285,4.0,14.0,35,-99.99,,,-99.99,,2013-07-13 08:01:00,
2013-07-13 00:11:00,67.0,38.0,-100.00,WNW,285,4.0,14.0,35,-99.99,,,-99.99,,2013-07-13 08:11:00,
2013-07-13 00:33:00,62.0,37.0,-100.00,NW,310,1.0,7.0,38,-99.99,,,-99.99,,2013-07-13 08:33:00,
2013-07-13 00:43:00,62.0,37.0,-100.00,NW,310,1.0,7.0,38,-99.99,,,-99.99,,2013-07-13 08:43:00,
2013-07-13 00:52:00,61.0,37.0,-100.00,ESE,110,1.0,2.0,40,-99.99,,,-99.99,,2013-07-13 08:52:00,
2013-07-13 01:02:00,61.0,37.0,-100.00,ESE,110,1.0,2.0,40,-99.99,,,-99.99,,2013-07-13 09:02:00,
2013-07-13 01:11:00,61.0,37.0,-100.00,ESE,110,1.0,2.0,40,-99.99,,,-99.99,,2013-07-13 09:11:00,
2013-07-13 01:33:00,60.0,37.0,-100.00,NW,310,4.0,4.0,42,-99.99,,,-99.99,,2013-07-13 09:33:00,
2013-07-13 01:42:00,60.0,37.0,-100.00,NW,310,4.0,4.0,42,-99.99,,,-99.99,,2013-07-13 09:42:00,
2013-07-13 01:53:00,58.0,37.0,-100.00,NW,305,2.0,4.0,45,-99.99,,,-99.99,,2013-07-13 09:53:00,
2013-07-13 02:01:00,58.0,37.0,-100.00,NW,305,2.0,4.0,45,-99.99,,,-99.99,,2013-07-13 10:01:00,
2013-07-13 02:11:00,58.0,37.0,-100.00,NW,305,2.0,4.0,45,-99.99,,,-99.99,,2013-07-13 10:11:00,
2013-07-13 02:32:00,54.0,38.0,-100.00,SSE,165,5.0,6.0,54,-99.99,,,-99.99,,2013-07-13 10:32:00,
2013-07-13 02:43:00,54.0,38.0,-100.00,SSE,165,5.0,6.0,54,-99.99,,,-99.99,,2013-07-13 10:43:00,
2013-07-13 02:52:00,53.0,40.0,-100.00,SSE,160,7.0,8.0,61,-99.99,,,-99.99,,2013-07-13 10:52:00,
2013-07-13 03:02:00,53.0,40.0,-100.00,SSE,160,7.0,8.0,61,-99.99,,,-99.99,,2013-07-13 11:02:00,
2013-07-13 03:11:00,53.0,40.0,-100.00,SSE,160,7.0,8.0,61,-99.99,,,-99.99,,2013-07-13 11:11:00,
2013-07-13 03:22:00,50.0,40.0,-100.00,South,170,7.0,9.0,69,-99.99,,,-99.99,,2013-07-13 11:22:00,
2013-07-13 03:32:00,50.0,40.0,-100.00,South,170,7.0,9.0,69,-99.99,,,-99.99,,2013-07-13 11:32:00,
2013-07-13 03:42:00,50.0,40.0,-100.00,South,170,7.0,9.0,69,-99.99,,,-99.99,,2013-07-13 11:42:00,
2013-07-13 03:52:00,49.0,41.0,-100.00,South,170,9.0,11.0,73,-99.99,,,-99.99,,2013-07-13 11:52:00,
2013-07-13 04:02:00,49.0,41.0,-100.00,South,170,9.0,11.0,73,-99.99,,,-99.99,,2013-07-13 12:02:00,
2013-07-13 04:12:00,49.0,41.0,-100.00,South,170,9.0,11.0,73,-99.99,,,-99.99,,2013-07-13 12:12:00,
2013-07-13 04:20:00,48.0,41.0,-100.00,South,175,11.0,12.0,76,-99.99,,,-99.99,,2013-07-13 12:20:00,
2013-07-13 04:22:00,49.0,41.0,-100.00,SSE,160,12.0,15.0,74,-99.99,,,-99.99,,2013-07-13 12:22:00,
2013-07-13 04:32:00,49.0,41.0,-100.00,SSE,160,12.0,15.0,74,-99.99,,,-99.99,,2013-07-13 12:32:00,
2013-07-13 04:43:00,49.0,41.0,-100.00,SSE,160,12.0,15.0,74,-99.99,,,-99.99,,2013-07-13 12:43:00,
2013-07-13 04:50:00,48.0,41.0,-100.00,South,180,11.0,16.0,76,-99.99,,,-99.99,,2013-07-13 12:50:00,
2013-07-13 05:01:00,48.0,41.0,-100.00,South,175,11.0,12.0,76,-99.99,,,-99.99,,2013-07-13 13:01:00,
2013-07-13 05:11:00,48.0,41.0,-100.00,South,175,11.0,12.0,76,-99.99,,,-99.99,,2013-07-13 13:11:00,
2013-07-13 05:43:00,48.0,41.0,-100.00,South,180,11.0,16.0,76,-99.99,,,-99.99,,2013-07-13 13:43:00,
2013-07-13 06:02:00,47.0,41.0,-100.00,South,180,11.0,14.0,78,-99.99,,,-99.99,,2013-07-13 14:02:00,
2013-07-13 06:11:00,47.0,41.0,-100.00,South,180,11.0,14.0,78,-99.99,,,-99.99,,2013-07-13 14:11:00,
2013-07-13 06:32:00,46.0,40.0,-100.00,SSE,150,13.0,18.0,80,-99.99,,,-99.99,,2013-07-13 14:32:00,
2013-07-13 06:43:00,46.0,40.0,-100.00,SSE,150,13.0,18.0,80,-99.99,,,-99.99,,2013-07-13 14:43:00,
2013-07-13 06:53:00,47.0,41.0,-100.00,SSE,150,9.0,18.0,80,-99.99,,,-99.99,,2013-07-13 14:53:00,
2013-07-13 07:02:00,47.0,41.0,-100.00,SSE,150,9.0,18.0,80,-99.99,,,-99.99,,2013-07-13 15:02:00,
2013-07-13 07:12:00,47.0,41.0,-100.00,SSE,150,9.0,18.0,80,-99.99,,,-99.99,,2013-07-13 15:12:00,
2013-07-13 07:22:00,48.0,41.0,-100.00,SE,140,12.0,16.0,78,-99.99,,,-99.99,,2013-07-13 15:22:00,
2013-07-13 07:33:00,48.0,41.0,-100.00,SE,140,12.0,16.0,78,-99.99,,,-99.99,,2013-07-13 15:33:00,
2013-07-13 07:43:00,48.0,41.0,-100.00,SE,140,12.0,16.0,78,-99.99,,,-99.99,,2013-07-13 15:43:00,
2013-07-13 08:02:00,49.0,42.0,-100.00,SE,145,12.0,19.0,75,-99.99,,,-99.99,,2013-07-13 16:02:00,
2013-07-13 08:11:00,49.0,42.0,-100.00,SE,145,12.0,19.0,75,-99.99,,,-99.99,,2013-07-13 16:11:00,
2013-07-13 08:32:00,51.0,42.0,-100.00,SSE,150,12.0,17.0,71,-99.99,,,-99.99,,2013-07-13 16:32:00,
2013-07-13 08:43:00,51.0,42.0,-100.00,SSE,150,12.0,17.0,71,-99.99,,,-99.99,,2013-07-13 16:43:00,
2013-07-13 08:53:00,55.0,43.0,-100.00,SSE,150,12.0,19.0,65,-99.99,,,-99.99,,2013-07-13 16:53:00,
2013-07-13 09:01:00,55.0,43.0,-100.00,SSE,150,12.0,19.0,65,-99.99,,,-99.99,,2013-07-13 17:01:00,
2013-07-13 09:11:00,55.0,43.0,-100.00,SSE,150,12.0,19.0,65,-99.99,,,-99.99,,2013-07-13 17:11:00,
2013-07-13 09:33:00,58.0,43.0,-100.00,SE,145,16.0,23.0,56,-99.99,,,-99.99,,2013-07-13 17:33:00,
2013-07-13 09:42:00,58.0,43.0,-100.00,SE,145,16.0,23.0,56,-99.99,,,-99.99,,2013-07-13 17:42:00,
2013-07-13 10:01:00,61.0,44.0,-100.00,SE,140,17.0,21.0,53,-99.99,,,-99.99,,2013-07-13 18:01:00,
2013-07-13 10:11:00,61.0,44.0,-100.00,SE,140,17.0,21.0,53,-99.99,,,-99.99,,2013-07-13 18:11:00,
2013-07-13 10:32:00,63.0,45.0,-100.00,SE,130,15.0,21.0,51,-99.99,,,-99.99,,2013-07-13 18:32:00,
2013-07-13 10:43:00,63.0,45.0,-100.00,SE,130,15.0,21.0,51,-99.99,,,-99.99,,2013-07-13 18:43:00,
2013-07-13 11:02:00,66.0,45.0,-100.00,SE,130,14.0,19.0,47,-99.99,,,-99.99,,2013-07-13 19:02:00,
2013-07-13 11:11:00,66.0,45.0,-100.00,SE,130,14.0,19.0,47,-99.99,,,-99.99,,2013-07-13 19:11:00,
2013-07-13 11:22:00,68.0,46.0,-100.00,SE,145,12.0,16.0,44,-99.99,,,-99.99,,2013-07-13 19:22:00,
2013-07-13 11:32:00,68.0,46.0,-100.00,SE,145,12.0,16.0,44,-99.99,,,-99.99,,2013-07-13 19:32:00,
2013-07-13 11:44:00,68.0,46.0,-100.00,SE,145,12.0,16.0,44,-99.99,,,-99.99,,2013-07-13 19:44:00,
2013-07-13 11:52:00,71.0,45.0,-100.00,SE,135,10.0,16.0,40,-99.99,,,-99.99,,2013-07-13 19:52:00,
2013-07-13 12:01:00,71.0,45.0,-100.00,SE,135,10.0,16.0,40,-99.99,,,-99.99,,2013-07-13 20:01:00,
2013-07-13 12:11:00,71.0,45.0,-100.00,SE,135,10.0,16.0,40,-99.99,,,-99.99,,2013-07-13 20:11:00,
2013-07-13 12:22:00,72.0,45.0,-100.00,SE,135,10.0,16.0,38,-99.99,,,-99.99,,2013-07-13 20:22:00,
2013-07-13 12:33:00,72.0,45.0,-100.00,SE,135,10.0,16.0,38,-99.99,,,-99.99,,2013-07-13 20:33:00,
2013-07-13 12:42:00,72.0,45.0,-100.00,SE,135,10.0,16.0,38,-99.99,,,-99.99,,2013-07-13 20:42:00,
2013-07-13 12:52:00,74.0,46.0,-100.00,SE,130,7.0,14.0,36,-99.99,,,-99.99,,2013-07-13 20:52:00,
2013-07-13 13:02:00,74.0,46.0,-100.00,SE,130,7.0,14.0,36,-99.99,,,-99.99,,2013-07-13 21:02:00,
2013-07-13 13:12:00,74.0,46.0,-100.00,SE,130,7.0,14.0,36,-99.99,,,-99.99,,2013-07-13 21:12:00,
2013-07-13 13:32:00,75.0,45.0,-100.00,South,170,1.0,7.0,34,-99.99,,,-99.99,,2013-07-13 21:32:00,
2013-07-13 13:42:00,75.0,45.0,-100.00,South,170,1.0,7.0,34,-99.99,,,-99.99,,2013-07-13 21:42:00,
2013-07-13 13:53:00,75.0,44.0,-100.00,NE,35,2.0,6.0,32,-99.99,,,-99.99,,2013-07-13 21:53:00,
2013-07-13 14:01:00,75.0,44.0,-100.00,NE,35,2.0,6.0,32,-99.99,,,-99.99,,2013-07-13 22:01:00,
2013-07-13 14:11:00,75.0,44.0,-100.00,NE,35,2.0,6.0,32,-99.99,,,-99.99,,2013-07-13 22:11:00,
2013-07-13 14:22:00,77.0,44.0,-100.00,SE,130,0.0,4.0,31,-99.99,,,-99.99,,2013-07-13 22:22:00,
2013-07-13 14:32:00,77.0,44.0,-100.00,SE,130,0.0,4.0,31,-99.99,,,-99.99,,2013-07-13 22:32:00,
2013-07-13 14:43:00,77.0,44.0,-100.00,SE,130,0.0,4.0,31,-99.99,,,-99.99,,2013-07-13 22:43:00,
2013-07-13 14:53:00,77.0,45.0,-100.00,East,90,4.0,6.0,31,-99.99,,,-99.99,,2013-07-13 22:53:00,
2013-07-13 15:01:00,77.0,45.0,-100.00,East,90,4.0,6.0,31,-99.99,,,-99.99,,2013-07-13 23:01:00,
2013-07-13 15:11:00,77.0,45.0,-100.00,East,90,4.0,6.0,31,-99.99,,,-99.99,,2013-07-13 23:11:00,
2013-07-13 15:20:00,78.0,44.0,-100.00,West,270,6.0,8.0,30,-99.99,,,-99.99,,2013-07-13 23:20:00,
2013-07-13 15:32:00,77.0,44.0,-100.00,SW,235,4.0,7.0,30,-99.99,,,-99.99,,2013-07-13 23:32:00,
2013-07-13 15:42:00,77.0,44.0,-100.00,SW,235,4.0,7.0,30,-99.99,,,-99.99,,2013-07-13 23:42:00,
2013-07-13 15:53:00,78.0,44.0,-100.00,West,270,6.0,8.0,30,-99.99,,,-99.99,,2013-07-13 23:53:00,
2013-07-13 16:01:00,78.0,44.0,-100.00,West,270,6.0,8.0,30,-99.99,,,-99.99,,2013-07-14 00:01:00,
2013-07-13 16:11:00,78.0,44.0,-100.00,West,270,6.0,8.0,30,-99.99,,,-99.99,,2013-07-14 00:11:00,
2013-07-13 16:33:00,79.0,45.0,-100.00,NW,315,6.0,9.0,30,-99.99,,,-99.99,,2013-07-14 00:33:00,
2013-07-13 16:42:00,79.0,45.0,-100.00,NW,315,6.0,9.0,30,-99.99,,,-99.99,,2013-07-14 00:42:00,
2013-07-13 17:01:00,78.0,44.0,-100.00,WNW,290,7.0,11.0,30,-99.99,,,-99.99,,2013-07-14 01:01:00,
2013-07-13 17:11:00,78.0,44.0,-100.00,WNW,290,7.0,11.0,30,-99.99,,,-99.99,,2013-07-14 01:11:00,
2013-07-13 17:22:00,76.0,44.0,-100.00,West,270,5.0,7.0,31,-99.99,,,-99.99,,2013-07-14 01:22:00,
2013-07-13 17:32:00,76.0,44.0,-100.00,West,270,5.0,7.0,31,-99.99,,,-99.99,,2013-07-14 01:32:00,
2013-07-13 17:43:00,76.0,44.0,-100.00,West,270,5.0,7.0,31,-99.99,,,-99.99,,2013-07-14 01:43:00,
2013-07-13 17:52:00,74.0,45.0,-100.00,WNW,285,4.0,7.0,35,-99.99,,,-99.99,,2013-07-14 01:52:00,
2013-07-13 18:01:00,74.0,45.0,-100.00,WNW,285,4.0,7.0,35,-99.99,,,-99.99,,2013-07-14 02:01:00,
2013-07-13 18:11:00,74.0,45.0,-100.00,WNW,285,4.0,7.0,35,-99.99,,,-99.99,,2013-07-14 02:11:00,
2013-07-13 18:32:00,78.0,45.0,-100.00,West,270,4.0,7.0,31,-99.99,,,-99.99,,2013-07-14 02:32:00,
2013-07-13 18:43:00,78.0,45.0,-100.00,West,270,4.0,7.0,31,-99.99,,,-99.99,,2013-07-14 02:43:00,
2013-07-13 18:53:00,76.0,45.0,-100.00,West,265,6.0,6.0,33,-99.99,,,-99.99,,2013-07-14 02:53:00,
2013-07-13 19:01:00,76.0,45.0,-100.00,West,265,6.0,6.0,33,-99.99,,,-99.99,,2013-07-14 03:01:00,
2013-07-13 19:11:00,76.0,45.0,-100.00,West,265,6.0,6.0,33,-99.99,,,-99.99,,2013-07-14 03:11:00,
2013-07-13 19:32:00,75.0,45.0,-100.00,West,265,6.0,7.0,34,-99.99,,,-99.99,,2013-07-14 03:32:00,
2013-07-13 19:43:00,75.0,45.0,-100.00,West,265,6.0,7.0,34,-99.99,,,-99.99,,2013-07-14 03:43:00,
2013-07-13 19:53:00,74.0,47.0,-100.00,West,270,4.0,6.0,37,-99.99,,,-99.99,,2013-07-14 03:53:00,
2013-07-13 20:02:00,74.0,47.0,-100.00,West,270,4.0,6.0,37,-99.99,,,-99.99,,2013-07-14 04:02:00,
2013-07-13 20:11:00,74.0,47.0,-100.00,West,270,4.0,6.0,37,-99.99,,,-99.99,,2013-07-14 04:11:00,
2013-07-13 20:53:00,74.0,46.0,-100.00,WNW,285,6.0,8.0,36,-99.99,,,-99.99,,2013-07-14 04:53:00,
2013-07-13 21:02:00,74.0,46.0,-100.00,WNW,285,6.0,8.0,36,-99.99,,,-99.99,,2013-07-14 05:02:00,
2013-07-13 21:11:00,74.0,46.0,-100.00,WNW,285,6.0,8.0,36,-99.99,,,-99.99,,2013-07-14 05:11:00,
2013-07-13 21:22:00,73.0,45.0,-100.00,West,275,6.0,8.0,36,-99.99,,,-99.99,,2013-07-14 05:22:00,
2013-07-13 21:32:00,73.0,45.0,-100.00,West,275,6.0,8.0,36,-99.99,,,-99.99,,2013-07-14 05:32:00,
2013-07-13 21:43:00,73.0,45.0,-100.00,West,275,6.0,8.0,36,-99.99,,,-99.99,,2013-07-14 05:43:00,
2013-07-13 21:53:00,72.0,45.0,-100.00,West,260,4.0,6.0,38,-99.99,,,-99.99,,2013-07-14 05:53:00,
2013-07-13 22:01:00,72.0,45.0,-100.00,West,260,4.0,6.0,38,-99.99,,,-99.99,,2013-07-14 06:01:00,
2013-07-13 22:11:00,72.0,45.0,-100.00,West,260,4.0,6.0,38,-99.99,,,-99.99,,2013-07-14 06:11:00,
2013-07-13 22:32:00,71.0,44.0,-100.00,WSW,255,6.0,8.0,37,-99.99,,,-99.99,,2013-07-14 06:32:00,
2013-07-13 22:42:00,71.0,44.0,-100.00,WSW,255,6.0,8.0,37,-99.99,,,-99.99,,2013-07-14 06:42:00,
2013-07-13 22:53:00,68.0,45.0,-100.00,SSE,150,6.0,7.0,43,-99.99,,,-99.99,,2013-07-14 06:53:00,
2013-07-13 23:02:00,68.0,45.0,-100.00,SSE,150,6.0,7.0,43,-99.99,,,-99.99,,2013-07-14 07:02:00,
2013-07-13 23:11:00,68.0,45.0,-100.00,SSE,150,6.0,7.0,43,-99.99,,,-99.99,,2013-07-14 07:11:00,
2013-07-13 23:22:00,67.0,46.0,-100.00,SSE,150,5.0,7.0,46,-99.99,,,-99.99,,2013-07-14 07:22:00,
2013-07-13 23:32:00,67.0,46.0,-100.00,SSE,150,5.0,7.0,46,-99.99,,,-99.99,,2013-07-14 07:32:00,
2013-07-13 23:43:00,67.0,46.0,-100.00,SSE,150,5.0,7.0,46,-99.99,,,-99.99,,2013-07-14 07:43:00,
2013-07-13 23:53:00,64.0,46.0,-100.00,SSE,150,6.0,9.0,51,-99.99,,,-99.99,,2013-07-14 07:53:00,